Showing default

COSMOS 1927, 18940

Orbit data source: Space-Track

COSMOS 1927, 18940 is a payload satellite owned by UNKS (CIS) in LEO that was launched on Fri, 11 Mar 1988 UTC via a KOSMOS 11K65M launch vehicle from the Plesetsk Missile And Space Complex (PKMTR). Payload-class satellites include a variety of spacecraft equipped with specific instruments for various scientific and technological missions. These include communications satellites like Starlink; space stations such as the ISS; scientific satellites like the Hubble; Earth observation satellites from companies like Planet Labs, Umbra, and HawkEye 360; GPS; miniature CubeSats for education and research; and military/defense satellites.

Loading next visibility...
Identifier
18940, 1988-016D
Orbit
LEO
Country
Flag of CISCIS
Related business
Manufacturer
NPO PM
Mission
Defense Communications
Bus & Motor
STRELA-1 11F625, Unknown motor
Mass
60 kg wet, 60 kg dry
Launch date (UTC)
1988-03-11 (38 years ago)
Launch vehicle
KOSMOS 11K65M
Launch site
Plesetsk Missile And Space Complex (PKMTR)
Object type
Payload
Rocket body
Debris
Shape & HBR
Sphere, 0.4 m
Radar Cross Section
0.588 m², Medium (>0.1 m² and < 1m²)

Expand to show TLE details & history
Last TLE update: 17 hours ago

TLE from 17 hours ago
0 COSMOS 1927
1 18940U 88016D   25348.90958634  .00000012  00000-0  18395-3 0  9993
2 18940  74.0026 157.2493 0007273 151.8818 279.9942 12.50917410724482
Epoch: 2025-12-14T21:49Z
TLE epoch observation values (Epoch: 2025-12-14T21:49:48.259Z)
Latitude
66.03344°
Longitude
145.90701°
Altitude
1,470.723 km
Speed
7.134 km/s
True Right ascension
13h 08m 41s
True Declination
65° 55' 02"
Sunlit
Object was in daylight at epoch
Visualization orbit readout
Latitude
Unknown
Longitude
Unknown
Altitude
Unknown
Speed
Unknown
Apparent Right ascension
Unknown
Apparent Declination
Unknown
Sunlit
N/A
Visualization observer readout
Local Sidereal Time
13:19:53
Azimuth
Unknown
Elevation
Unknown
Doppler factor
Unknown
Orbital elements
Apogee altitude
1,464.196 km
Perigee altitude
1,452.797 km
Semi-major axis
7,836.633 km
Eccentricity
0.00073
Inclination
74.0026°
RAAN
157.2493°
Arg. of periapsis
151.8818°
True anomaly
279.91211°
Mean anomaly
279.9942°
Eccentric anomaly
279.95316°
Mean motion
3.12859 °/min
Orbital period
115.07 mins
BSTAR
0.00018395
Loading maneuver chart data...
Computing Atmospheric mass density...
Loading historical data...
Loading historical data...
Loading historical data...
Loading historical data...
Loading historical data...
Loading historical data...
Loading historical data...

Documentation

Showing up to 5 results
|